Regional Weather Roundup
Issued by NWS Wakefield, VA

Home | Current Version | Previous Version | Text Only | Print | Product List | Glossary On
Versions: 1 2 3 4 5 6 7 8 9 10 11 12 13 14 15 16 17 18 19 20 21 22 23 24 25 26 27 28 29 30 31 32 33 34 35 36 37 38 39 40 41 42 43 44 45 46 47 48 49 50
941
ASUS41 KAKQ 240115
RWRAKQ

REGIONAL WEATHER ROUNDUP
NATIONAL WEATHER SERVICE WAKEFIELD VA
900 PM EDT MON APR 23 2018

Note: "fair" indicates few or no clouds below 12,000 feet with no
significant weather and/or obstructions to visibility. * = Denotes
station may not report precipitation (e.g., rain,snow,etc.),
thunder or fog.

VAZ042-051-052>054-056-240200-
NORTHERN VIRGINIA

CITY           SKY/WX    TMP DP  RH WIND       PRES   REMARKS
WASH NATIONAL  MOCLDY    59  30  33 SE10      30.38S
DULLES         CLOUDY    58  32  37 SE13G21   30.37R
FORT BELVOIR   NOT AVBL
QUANTICO       MOCLDY    59  39  47 SE9       30.38R
FREDERICKSBRG* FAIR      59  32  36 E7        30.35S
STAFFORD*      FAIR      58  34  41 E7        30.39S
WARRENTON      FAIR      57  35  42 E5        30.35R
CULPEPER*      FAIR      60  31  33 SE8       30.36R
MANASSAS*      FAIR      58  35  42 SE9       30.37R
LEESBURG*      FAIR      61  39  44 SE13      30.37R
WINCHESTER     FAIR      55  41  58 SE10      30.35R
FRONT ROYAL*   FAIR      59  41  51 SE8       30.32R
LURAY*         FAIR      61  41  48 SE12G20   30.31R
$$

VAZ048-049-060>072-079>083-240200-
CENTRAL AND SOUTH CENTRAL VIRGINIA

CITY           SKY/WX    TMP DP  RH WIND       PRES   REMARKS
RICHMOND       CLOUDY    58  40  51 E10       30.34R
CHESTERFIELD*  FAIR      60  39  45 E10       30.34R
PETERSBURG*    FAIR      59  38  46 E8        30.33R
HANOVER        FAIR      59  37  44 E7        30.36R
TAPPAHANNOCK*  FAIR      57  41  55 E6        30.37S
QUINTON*       FAIR      56  41  56 E7        30.35R
CHARLOTTSVILLE CLOUDY    62  39  42 SE12      30.32R
GORDONSVILLE*  FAIR      59  36  41 E7        30.33R
ORANGE*        FAIR      59  36  41 CALM      30.34R
LOUISA*        FAIR      58  34  40 E7        30.38R
BUMPASS*       FAIR      57  32  37 SE6       30.34R
FARMVILLE*     CLOUDY    63  45  51 E7        30.29R
CREWE*         MOCLDY    61  45  55 E5        30.30S
FORT PICKETT*  FAIR      60  43  53 E12       30.31R
CHASE CITY*    CLOUDY    61  46  57 E9G18     30.28R
CLARKSVILLE*   CLOUDY    59  50  72 E8G20     30.26R
SOUTH HILL*    CLOUDY    60  45  57 E8        30.33S
LAWRENCEVILLE* MOCLDY    60  41  50 E5        30.30R
EMPORIA*       FAIR      59  41  51 NE12G21   30.32S
$$

VAZ088>098-240200-
SOUTHEAST VIRGINIA

CITY           SKY/WX    TMP DP  RH WIND       PRES   REMARKS
NORFOLK        FAIR      59  41  51 E13G20    30.34R
VIRGINIA BEACH CLOUDY    56  44  64 E14       30.35R
NORFOLK NAVAL  MOCLDY    58  40  51 E9        30.36R
WEST POINT*    FAIR      56  38  52 E7        30.37S
SALUDA*        FAIR      56  44  62 E5        30.37R
NEWPORT NEWS   FAIR      57  41  55 E12       30.35R
LANGLEY AFB    NOT AVBL
FORT EUSTIS    NOT AVBL
WILLIAMSBURG*  FAIR      59  39  47 E8G16     30.36R
HR EXEC AP*    FAIR      58  41  53 E7        30.35R
FRANKLIN*      FAIR      57  41  54 E8        30.33R
US460-WAKEFLD  FAIR      59  41  51 E3        30.34R
$$

VAZ020-022-025-037-045-240200-
WEST CENTRAL AND SOUTHWEST VIRGINIA

CITY           SKY/WX    TMP DP  RH WIND       PRES   REMARKS
STAUNTON*      CLOUDY    59  42  54 SE13G18   30.32R
WAYNESBORO*    CLOUDY    58  44  59 E12G20    30.29S
HOT SPRINGS VA LGT RAIN  46  46  97 E14G23    30.26F
LYNCHBURG      LGT RAIN  59  48  67 E10       30.27R
DANVILLE       LGT RAIN  55  54  96 E3        30.24R
SOUTH BOSTON*  CLOUDY    59  50  73 E7        30.26R
MARTINSVILLE   DRIZZLE   54  51  91 NE6       30.24F
ROANOKE        LGT RAIN  55  51  86 E3        30.26S
BLACKSBURG     DRIZZLE   51  49  92 E14       30.24F
DUBLIN*        LGT RAIN  51  50  95 E8        30.22R
MARION*        LGT RAIN  50  48  93 E15G24    30.20R
HILLSVILLE*    DRIZZLE   48  47  95 E12G22    30.19R
RICHLANDS*     CLOUDY    50  18  28 E12G46    30.13R
WISE*          FAIR      52  45  76 E12G18    30.08S
ABINGDON*      MOCLDY    55  47  76 E14       30.10R
$$

MDZ021>025-VAZ099-100-240200-
SOUTHERN MARYLAND AND THE DELMARVA PENINSULA

CITY           SKY/WX    TMP DP  RH WIND       PRES   REMARKS
PATUXENT RIVER MOCLDY    57  45  64 E10       30.38F
BAY BRIDGE APT FAIR      57  37  47 SE7       30.40R
LEONARDTOWN    FAIR      54  37  54 E5        30.40S
DOVER          NOT AVBL
GEORGETOWN     FAIR      51  30  44 SE5       30.43R
EASTON         MOCLDY    57  25  28 SE5       30.44R
CAMBRIDGE      CLEAR     55  28  35 SE6       30.41R
SALISBURY      FAIR      50  34  54 E3        30.41S
TANGIER        FAIR      55  46  71 E9        30.38S
OCEAN CITY     FAIR      51  43  74 CALM      30.42F
WALLOPS ISLAND FAIR      55  42  61 SE9       30.41S
ACCOMACK*      FAIR      55  42  61 SE7       30.38S
$$

NCZ012>017-030>032-240200-
NORTH CENTRAL AND EASTERN NORTH CAROLINA

CITY           SKY/WX    TMP DP  RH WIND       PRES   REMARKS
ROANOKE RAPIDS FAIR      61  45  55 E7        30.29R
RALEIGH        LGT RAIN  59  53  80 E9        30.22R
ELIZABETH CITY FAIR      59  49  69 E13       30.32S
AHOSKIE*       FAIR      59  43  56 E5        30.31R
EDENTON*       FAIR      61  52  71 E12G18    30.31S
CURRITUCK*     NOT AVBL
KILL DEVIL HLS FAIR      55  48  79 E6        30.31R
MANTEO         FAIR      58  49  72 E9        30.32S
CAPE HATTERAS  FAIR      63  51  65 E13       30.29R
TARBORO*       NOT AVBL
GOLDSBORO      FAIR      61  53  76 E8        30.19S
WASHINGTON     FAIR      62  47  59 E12G17    30.27R
GREENVILLE     MOCLDY    63  46  55 E12       30.26S
NEW BERN       FAIR      64  50  60 E13G22    30.24F
WILMINGTON     CLOUDY    64  56  75 E20G25    30.17R
$$

VAZ048-240200-
ELSEWHERE

CITY           SKY/WX    TMP DP  RH WIND       PRES   REMARKS
HARRISBURG PA  MOCLDY    59  38  45 SE8       30.36R
BALTIMORE      MOCLDY    59  26  28 SE5       30.38R
ANNAPOLIS      FAIR      59  37  44 S7        30.39S
ANDREWS AFB    NOT AVBL
PHILADELPHIA   FAIR      56  24  29 S14       30.44R
HENDERSON NC   DRIZZLE   57  48  71 E9G17     30.25R
GREENSBORO     LGT RAIN  56  55  97 E9        30.18S FOG
ROCKY MOUNT    MOCLDY    62  46  55 E9G22     30.25R
$$

VAZ100-240200-
MARINE

STATION/POSITION TIME  TEMP    WIND        PRES    WAVE   SWELL
                       AIR SEA DIR/SP/G            HT/PER HT/PER
                 (UTC) (F)     (DEG/KT/KT) (MB)    (FT/S) (FT/S)
BRANDYWINE LGT   0036   54     190/ 11/ 13 1030.6R
CAPE MAY NJ      0048   50 51  190/  4/  5 1030.0R
LEWES DE         0048   53 52  170/  3/  5 1030.2S
15NM E FENWICK I 0050   50 48  170/  6/  6 1030.7R   2/ 4   2/ 9
OCEAN-CITY-INLET 0048   52 51  170/  5/  7 1030.6F
WACHAPREAGUE VA  0048   54 60  100/  8/ 11 1028.9F
THOMAS POINT MD  0100   56 53  160/ 10/ 10 1030.1R
GOOSES REEF MD   0050   56     130/  8/ 10 1029.6R
COVE POINT MD    0048   56     160/ 12/ 15 1029.6F
SOLOMONS ISLAND  0048   56 54  110/ 12/ 15 1028.5F
BISHOPS HEAD MD  0048   57 59  110/ 14/ 17 1029.5S
PINEY POINT MD   0048          140/ 11/ 12   N/A
POTOMAC MD       0050   56     130/ 14/ 16 1029.9S
CAMBRIDGE MD     0048   57 56              1030.4R
LEWISETTA VA     0048   56 57  120/ 13/ 15 1028.4F
RAPPAHANNOCK LGT 0048           90/ 15/ 18 1028.9S
STINGRAY PT      0050   55     130/ 12/ 14 1029.3F
YORK RVR RNG VA  0048   56     110/ 15/ 18 1028.3R
YORKTOWN VA      0048   58 56  120/ 14/ 16 1027.5R
DOMINION TERM VA 0048   59     100/  5/ 10 1027.8R
KIPTOPEKE VA     0048      54  110/ 12/ 17   N/A
CAPE HENRY VA    0048   55      90/ 17/ 20   N/A
WILLOUBY STN VA  0048   56     100/ 14/ 15 1027.6R
S CRANEY ISL VA  0048   59     100/ 12/ 15 1027.3R
CAPE HENRY BUOY  0030      52                N/A     3/ 5
1ST LANDING BUOY 0050   55     110/ 16/ 17 1027.6S
64NM E OF VA BCH 0050   53 50   80/ 14/ 16 1028.0F   3/ 5   2/ 7
DUCK PIER NC     0048   55 55   70/ 14/ 15 1026.6R
44100 DUCK FRF   0045      51                N/A     4/ 5
44056 DUCK FRF   0030      53                N/A     4/ 6
OREGON INLET NC  0042   56 58   70/  6/  8 1026.5R
HATTERAS NC      0048   64 62  110/ 11/ 17 1025.1F
DIAMOND SHLS NC  0050   67 73  100/ 21/ 27 1025.4F   6/ 6   2/11
CAPE LOOKOUT NC  0000          100/ 20/ 23 1024.0
$$




USA.gov is the U.S. government's official web portal to all federal, state and local government web resources and services.